Stations météo

réclame
Mon MeteoGroup
Kleine Brogel, Belgique (6479): Température de l'air & dewpoint: 15.02.2019 19:00:00 - 21.02.2019 19:00:00 (CET)Kleine Brogel, Belgique (6479): Vitesse du vent & gusts: 15.02.2019 19:00:00 - 21.02.2019 19:00:00 (CET)Kleine Brogel, Belgique (6479): Direction du vent: 15.02.2019 19:00:00 - 21.02.2019 19:00:00 (CET)Kleine Brogel, Belgique (6479): reduced air pressure: 15.02.2019 19:00:00 - 21.02.2019 19:00:00 (CET)Kleine Brogel, Belgique (6479): visibility: 15.02.2019 19:00:00 - 21.02.2019 19:00:00 (CET)
Date & Time tt [°C] td [°C] ff [km/h] ff [knt] fx [km/h] fx [knt] dd ppp [hPa] vv [km]
21.02.2019 19:00:00 11,6 6,2 7 4 - - WSW 1029,2 18
21.02.2019 18:00:00 12,1 6,4 7 4 22 12 WSW 1028,5 17
21.02.2019 17:00:00 12,6 5,8 14 8 25 14 WSW 1027,7 8
21.02.2019 16:00:00 12,8 5,6 14 8 - - WSW 1027,9 8
21.02.2019 15:00:00 13,1 5,5 14 8 25 14 WSW 1027,9 8
21.02.2019 14:00:00 12,9 5,7 18 10 32 18 WSW 1027,7 8
21.02.2019 13:00:00 11,5 5,4 14 8 - - WSW 1027,9 8
21.02.2019 12:00:00 10,9 6,3 11 6 18 10 SW 1028,5 8
21.02.2019 11:00:00 8,8 5,6 11 6 18 10 SW 1027,9 8
21.02.2019 10:00:00 8,1 5,1 14 8 - - WSW 1027,9 6
21.02.2019 09:00:00 6,4 4,3 11 6 14 8 SW 1027,2 6
21.02.2019 08:00:00 5,2 3,5 7 4 11 6 N 1026,7 6
21.02.2019 07:00:00 5,1 3,5 4 2 - - N 1026,0 5
21.02.2019 06:00:00 5,1 3,6 4 2 11 6 N 1026,2 6
21.02.2019 05:00:00 5,1 3,5 7 4 11 6 SSW 1026,2 7
21.02.2019 04:00:00 6,0 3,9 8 4 - - SSW 1026,5 8
21.02.2019 03:00:00 5,5 3,6 4 2 7 4 N 1026,5 9
21.02.2019 02:00:00 5,1 3,2 4 2 7 4 N 1026,0 10
21.02.2019 01:00:00 6,0 3,4 4 2 - - N 1025,7 10
21.02.2019 00:00:00 6,4 3,4 7 4 14 8 SSW 1025,5 18
20.02.2019 23:00:00 7,0 3,5 4 2 11 6 N 1025,5 15
20.02.2019 22:00:00 6,8 3,2 7 4 - - SW 1025,5 18
20.02.2019 21:00:00 7,6 2,8 7 4 14 8 SW 1025,2 19
20.02.2019 20:00:00 8,1 0,6 4 2 7 4 N 1024,9 20
20.02.2019 19:00:00 8,8 1,1 4 2 - - N 1024,5 20
20.02.2019 18:00:00 10,5 2,3 7 4 22 12 SW 1024,0 20
20.02.2019 17:00:00 11,1 2,4 14 8 25 14 SW 1023,7 20
20.02.2019 16:00:00 11,1 2,8 18 10 - - SW 1023,7 20
20.02.2019 15:00:00 11,4 3,0 22 12 29 16 SW 1023,6 20
20.02.2019 14:00:00 11,1 3,5 18 10 25 14 SW 1023,8 20
20.02.2019 13:00:00 11,3 4,2 11 6 - - WSW 1023,7 20
20.02.2019 12:00:00 9,8 4,0 18 10 29 16 SW 1024,0 15
20.02.2019 11:00:00 8,0 3,6 18 10 25 14 SW 1023,7 15
20.02.2019 10:00:00 7,1 3,7 14 8 - - SW 1023,6 15
20.02.2019 09:00:00 5,0 2,7 7 4 11 6 N 1023,2 15
20.02.2019 08:00:00 3,6 1,9 4 2 11 6 N 1022,7 15
20.02.2019 07:00:00 3,5 1,5 5 3 - - SSW 1022,2 10
20.02.2019 06:00:00 4,1 1,8 4 2 11 6 N 1022,3 15
20.02.2019 05:00:00 4,0 1,9 7 4 14 8 SSW 1022,2 15
20.02.2019 04:00:00 4,0 1,8 7 4 - - SSW 1021,8 16
20.02.2019 03:00:00 4,3 2,2 7 4 14 8 SSW 1022,2 15
20.02.2019 02:00:00 4,1 2,0 4 2 7 4 N 1022,6 15
20.02.2019 01:00:00 4,5 2,1 4 2 - - - 1022,3 16
20.02.2019 00:00:00 5,1 2,1 4 2 7 4 N 1022,3 20
19.02.2019 23:00:00 5,7 2,0 4 2 11 6 N 1022,1 20
19.02.2019 22:00:00 6,1 1,8 7 4 - - SW 1022,0 20
19.02.2019 21:00:00 6,8 1,5 4 2 11 6 N 1021,8 20
19.02.2019 20:00:00 7,1 1,9 4 2 11 6 - 1021,7 20
19.02.2019 19:00:00 7,5 1,9 4 2 - - - 1021,3 20
19.02.2019 18:00:00 8,3 1,9 7 4 29 16 WSW 1021,0 20
19.02.2019 17:00:00 9,6 2,0 14 8 29 16 WSW 1020,8 20
19.02.2019 16:00:00 10,1 2,7 18 10 - - WSW 1020,7 20
19.02.2019 15:00:00 10,3 2,7 25 14 40 21 WSW 1020,6 10
19.02.2019 14:00:00 10,7 3,2 25 14 40 21 WSW 1020,6 10
19.02.2019 13:00:00 10,3 3,7 25 14 - - WSW 1020,6 10
19.02.2019 12:00:00 10,3 3,5 25 14 36 19 WSW 1020,6 10
19.02.2019 11:00:00 9,0 3,8 22 12 36 19 WSW 1020,2 10
19.02.2019 10:00:00 7,6 4,8 18 10 - - WSW 1020,1 10
19.02.2019 09:00:00 6,5 4,7 14 8 18 10 SW 1019,7 10
19.02.2019 08:00:00 5,9 4,5 15 8 22 12 SW 1019,2 10
19.02.2019 07:00:00 6,5 4,8 16 9 - - SW 1018,3 10
19.02.2019 06:00:00 7,1 4,8 14 8 25 14 SW 1018,2 19
19.02.2019 05:00:00 7,5 5,2 14 8 22 12 WSW 1017,8 15
19.02.2019 04:00:00 7,4 5,4 11 6 - - SW 1017,6 11
19.02.2019 03:00:00 7,4 5,2 7 4 14 8 WSW 1017,6 20
19.02.2019 02:00:00 7,9 4,2 7 4 14 8 W 1017,3 16
19.02.2019 01:00:00 7,3 2,8 14 8 - - WSW 1017,1 20
19.02.2019 00:00:00 8,0 2,6 11 6 18 10 SW 1016,6 20
18.02.2019 23:00:00 8,1 2,2 7 4 18 10 SSW 1016,5 20
18.02.2019 22:00:00 9,1 1,8 11 6 - - SSW 1016,6 20
18.02.2019 21:00:00 10,0 1,4 14 8 22 12 SSW 1016,5 20
18.02.2019 20:00:00 11,1 1,4 14 8 22 12 SSW 1016,2 20
18.02.2019 19:00:00 10,7 1,4 7 4 - - SSW 1016,0 20
18.02.2019 18:00:00 12,1 0,8 7 4 11 6 N 1015,7 20
18.02.2019 17:00:00 14,5 0,4 7 4 18 10 SW 1015,6 20
18.02.2019 16:00:00 15,8 0,1 11 6 - - SSW 1015,8 20
18.02.2019 15:00:00 - - - - - - - - -
18.02.2019 14:00:00 15,6 -0,2 7 4 0 0 SSW 1024,7 15
18.02.2019 13:00:00 15,0 -0,7 7 4 - - SSW 1024,9 15
18.02.2019 12:00:00 13,8 -1,8 7 4 0 0 SSW 1024,9 15
18.02.2019 11:00:00 13,8 -1,8 11 6 0 0 SSW 1024,9 15
18.02.2019 10:00:00 10,9 -4,3 11 6 - - SSW 1025,0 15
18.02.2019 09:00:00 8,6 -6,4 11 6 0 0 SSW 1025,0 15
18.02.2019 08:00:00 6,0 1,7 11 6 0 0 SSW 1025,0 15
18.02.2019 07:00:00 - - - - - - - - -
18.02.2019 06:00:00 - - - - 0 0 - - -
18.02.2019 05:00:00 - - - - 0 0 - - -
18.02.2019 04:00:00 - - - - - - - - -
18.02.2019 03:00:00 - - - - 0 0 - - -
18.02.2019 02:00:00 - - - - 0 0 - - -
18.02.2019 01:00:00 - - - - - - - - -
18.02.2019 00:00:00 - - - - 0 0 - - -
17.02.2019 23:00:00 - - - - 0 0 - - -
17.02.2019 22:00:00 - - - - - - - - -
17.02.2019 21:00:00 - - - - 0 0 - - -
17.02.2019 20:00:00 - - - - 0 0 - - -
17.02.2019 19:00:00 - - - - - - - - -
17.02.2019 18:00:00 - - - - 0 0 - - -
17.02.2019 17:00:00 - - - - 0 0 - - -
17.02.2019 16:00:00 - - - - - - - - -
17.02.2019 15:00:00 - - - - 0 0 - - -
17.02.2019 14:00:00 - - - - 0 0 - - -
17.02.2019 13:00:00 - - - - - - - - -
17.02.2019 12:00:00 - - - - - - - - -
17.02.2019 11:00:00 - - - - - - - - -
17.02.2019 10:00:00 - - - - - - - - -
17.02.2019 09:00:00 - - - - 0 0 - - -
17.02.2019 08:00:00 - - - - 0 0 - - -
17.02.2019 07:00:00 - - - - - - - - -
17.02.2019 06:00:00 - - - - 0 0 - - -
17.02.2019 05:00:00 - - - - 0 0 - - -
17.02.2019 04:00:00 - - - - - - - - -
17.02.2019 03:00:00 - - - - 0 0 - - -
17.02.2019 02:00:00 - - - - 0 0 - - -
17.02.2019 01:00:00 - - - - - - - - -
17.02.2019 00:00:00 - - - - 0 0 - - -
16.02.2019 23:00:00 - - - - 0 0 - - -
16.02.2019 22:00:00 - - - - - - - - -
16.02.2019 21:00:00 - - - - 0 0 - - -
16.02.2019 20:00:00 - - - - 0 0 - - -
16.02.2019 19:00:00 - - - - - - - - -
16.02.2019 18:00:00 - - - - - - - - -
16.02.2019 17:00:00 - - - - - - - - -
16.02.2019 16:00:00 - - - - - - - - -
16.02.2019 15:00:00 - - - - - - - - -
16.02.2019 14:00:00 - - - - - - - - -
16.02.2019 13:00:00 - - - - - - - - -
16.02.2019 12:00:00 - - - - - - - - -
16.02.2019 11:00:00 - - - - - - - - -
16.02.2019 10:00:00 - - - - - - - - -
16.02.2019 09:00:00 - - - - - - - - -
16.02.2019 08:00:00 - - - - - - - - -
16.02.2019 07:00:00 - - - - - - - - -
16.02.2019 06:00:00 - - - - - - - - -
16.02.2019 05:00:00 - - - - - - - - -
16.02.2019 04:00:00 - - - - - - - - -
16.02.2019 03:00:00 - - - - - - - - -
16.02.2019 02:00:00 - - - - - - - - -
16.02.2019 01:00:00 - - - - - - - - -
16.02.2019 00:00:00 - - - - - - - - -
15.02.2019 23:00:00 - - - - - - - - -
15.02.2019 22:00:00 - - - - - - - - -
15.02.2019 21:00:00 - - - - - - - - -
15.02.2019 20:00:00 - - - - - - - - -
15.02.2019 19:00:00 7,0 2,2 4 2 - - N 1028,5 16

tt = Température de l'air
td = dewpoint
ff = Vitesse du vent
fx = gusts
dd = Direction du vent
ppp = reduced air pressure
vv = visibility

stations d'obs. à proximité